Dewpoint
49 48 46 47 47 47 47 47 48 52 54 54 54 54 54 54 54 55 54 53 52 50 49 48 47 46 46
47 45 46 44 45 45 46 46 46 48 51 52 53 53 53 53 53 54 53 52 51 51 50 48 47 46 46
47 45 44 42 41 41 42 43 43 45 48 50 51 52 52 52 52 52 52 51 50 49 49 48 46 46 45
48 44 43 41 41 41 40 39 41 40 42 45 47 48 50 52 51 50 50 50 50 49 48 47 46 46 45
48 45 43 40 41 41 41 42 38 39 37 38 40 42 44 49 49 48 49 50 49 48 48 47 46 46 44
49 45 45 43 42 42 41 38 37 38 37 39 38 38 40 43 47 48 49 49 49 48 47 46 45 45 44
50 48 47 46 43 40 40 38 42 39 36 34 36 37 39 41 45 47 48 48 48 47 46 46 45 45 44
50 50 50 48 46 46 45 43 39 36 36 36 35 36 38 39 43 45 46 47 47 46 46 45 44 44 43
48 48 49 49 48 47 43 40 39 38 36 36 36 34 36 38 40 43 46 46 46 46 45 44 44 43 41
47 47 47 48 47 48 46 41 39 34 36 35 34 34 34 33 35 38 41 45 45 45 45 44 44 39 36
46 46 45 45 45 46 47 44 40 37 38 36 33 33 33 32 31 33 36 39 41 43 44 44 42 40 35
41 41 40 40 40 40 39 39 38 39 38 36 33 34 33 30 30 30 32 34 35 35 36 41 42 40 39
38 37 35 35 34 33 33 33 33 33 36 34 33 33 33 32 30 29 29 30 32 33 33 33 33 33 32
35 34 33 33 32 33 32 32 32 30 31 33 33 33 31 31 30 28 30 29 29 30 30 30 30 30 29
33 32 32 32 32 32 32 31 30 28 27 28 30 30 30 30 26 27 26 26 26 26 26 25 26 26 26
33 32 32 32 31 31 31 30 29 27 26 27 27 27 27 28 30 25 25 24 25 25 23 17 21 23 23
32 32 31 31 32 30 30 29 28 27 27 26 26 25 24 23 23 28 22 21 20 20 20 20 19 21 20
Lifted_Index
2 2 3 4 4 5 5 5 6 6 6 7 7 8 8 8 8 8 9 9 9 10 11 12 13 14 14
2 2 3 3 4 4 5 5 5 6 6 7 7 8 8 8 8 8 9 9 9 10 11 12 13 14 14
2 3 3 3 3 4 4 5 5 5 6 6 7 7 8 8 8 8 9 9 9 10 11 12 13 13 13
3 3 3 3 3 4 4 4 5 5 6 6 7 7 7 7 8 8 8 9 9 10 10 11 12 13 13
3 3 3 3 4 4 5 5 5 6 6 6 7 7 7 7 7 7 8 8 9 9 10 11 12 13 13
3 3 4 4 4 5 5 6 6 6 6 6 7 7 7 7 7 7 7 8 8 9 10 11 12 13 13
3 3 4 4 5 5 6 6 6 6 7 7 7 7 7 7 7 7 7 7 7 8 9 11 12 13 13
3 3 4 4 5 5 6 6 6 6 6 7 7 7 7 7 7 7 7 7 7 8 9 11 12 13 13
3 3 4 4 5 5 5 6 6 6 6 6 7 7 7 7 7 7 7 7 8 8 10 12 12 13 13
4 4 4 4 5 5 6 6 6 6 6 7 7 7 7 7 7 8 8 8 8 10 11 12 13 13 13
4 4 4 4 5 5 6 6 6 6 7 7 7 7 7 7 8 9 9 9 10 10 11 12 13 13 13
4 4 4 4 5 5 6 7 7 7 7 8 8 8 8 8 8 9 10 10 10 10 11 12 13 13 13
4 4 5 5 5 6 7 7 8 8 8 8 9 9 9 9 9 9 10 10 10 10 10 12 13 13 13
4 5 5 5 5 6 7 8 8 8 8 9 10 10 10 10 10 10 11 10 10 10 11 12 13 13 13
5 5 5 5 5 6 7 7 7 7 8 9 10 11 11 11 11 12 12 11 11 12 11 12 12 13 14
5 5 5 5 5 6 6 6 7 7 7 8 9 10 10 11 13 13 13 12 13 13 12 12 13 15 16
5 5 5 5 5 6 6 6 6 6 7 7 8 9 9 10 13 14 13 13 13 13 13 13 13 16 18